Parsons, KS

2:32 PM CDT on April 27, 2017 (GMT -0500)
Tri-City

Weather History for KPPF - May, 2014

Change the Weather History Date:

Friday, May 23, 2014

  Actual Average Record
Temperature  
Mean Temperature 73 °F -  
Max Temperature 82 °F 78 °F 91 °F (2000)
Min Temperature 64 °F 58 °F 45 °F (2001)
Cooling Degree Days 8    
Growing Degree Days 23 (Base 50)    
Moisture  
Dew Point 63 °F    
Average Humidity 68    
Maximum Humidity 93    
Minimum Humidity 49    
Precipitation  
Precipitation 0.00 in - - ()
Sea Level Pressure  
Sea Level Pressure 30.05 in    
Wind  
Wind Speed 3 mph (SSE)    
Max Wind Speed 9 mph    
Max Gust Speed 17 mph    
Visibility 10 miles    
Events Thunderstorm    
Averages and records for this station are not official NWS values.
T = Trace of Precipitation, MM = Missing Value Source: NWS Daily Summary

Daily Weather History Graph

Daily Weather History Graph

Search for Another Location

Airport or City:

Trip Planner

Search our weather history database for the weather conditions in past years. The results will help you decide how hot, cold, wet, or windy it might be!

Date:

Astronomy

May. 23, 2014 Rise Set
Actual Time 6:07 AM CDT 8:30 PM CDT
Civil Twilight 5:37 AM CDT 9:00 PM CDT
Nautical Twilight 5:00 AM CDT 9:37 PM CDT
Astronomical Twilight 4:20 AM CDT 10:17 PM CDT
Moon 2:55 AM CDT (5/23) 3:30 PM CDT (5/23)
Length of Visible Light 15h 22m
Length of Day
14h 23m
Waning Crescent, 27% of the Moon is Illuminated
May 23
Waning Crescent
May 28
New
Jun 5
First Quarter
Jun 12
Full
Jun 19
Last Quarter

Hourly Weather History & Observations

Time (CDT) Temp. Heat Index Dew Point Humidity Pressure Visibility Wind Dir Wind Speed Gust Speed Precip Events Conditions
12:52 AM 70.0 °F - 63.0 °F 78% 30.07 in 10.0 mi Calm Calm - N/A   Clear
1:52 AM 68.0 °F - 62.1 °F 81% 30.06 in 10.0 mi East 3.5 mph - N/A   Clear
2:52 AM 66.9 °F - 62.1 °F 84% 30.06 in 10.0 mi Calm Calm - N/A   Clear
3:52 AM 66.9 °F - 63.0 °F 87% 30.05 in 10.0 mi East 4.6 mph - N/A   Clear
4:52 AM 66.9 °F - 63.0 °F 87% 30.04 in 9.0 mi Variable 3.5 mph - N/A   Scattered Clouds
5:52 AM 64.9 °F - 63.0 °F 93% 30.06 in 8.0 mi Variable 3.5 mph - N/A   Clear
6:52 AM 64.9 °F - 61.0 °F 87% 30.07 in 10.0 mi East 3.5 mph - N/A   Partly Cloudy
7:52 AM 68.0 °F - 63.0 °F 84% 30.07 in 10.0 mi Variable 3.5 mph - N/A   Clear
8:52 AM 73.9 °F - 64.0 °F 71% 30.09 in 10.0 mi SE 5.8 mph - N/A   Clear
9:52 AM 79.0 °F - 64.9 °F 62% 30.10 in 10.0 mi SSW 4.6 mph - N/A   Clear
10:52 AM 80.1 °F 81.9 °F 64.9 °F 60% 30.09 in 10.0 mi SSW 5.8 mph - N/A   Clear
11:52 AM 82.0 °F 83.8 °F 64.9 °F 56% 30.09 in 10.0 mi South 6.9 mph - N/A   Mostly Cloudy
12:52 PM 82.0 °F 83.4 °F 64.0 °F 54% 30.07 in 10.0 mi South 5.8 mph - N/A   Mostly Cloudy
1:52 PM 82.9 °F 84.0 °F 63.0 °F 51% 30.06 in 10.0 mi Variable 6.9 mph - N/A   Partly Cloudy
2:52 PM 82.9 °F 83.7 °F 62.1 °F 49% 30.04 in 10.0 mi South 8.1 mph - N/A   Clear
3:52 PM 81.0 °F 81.9 °F 62.1 °F 52% 30.04 in 10.0 mi SSE 5.8 mph - N/A   Clear
4:52 PM 81.0 °F 82.2 °F 63.0 °F 54% 30.02 in 10.0 mi Variable 6.9 mph - N/A   Clear
5:26 PM 81.0 °F 82.2 °F 63.0 °F 54% 30.04 in 10.0 mi SE 3.5 mph - N/A Thunderstorm Thunderstorm
5:47 PM 75.2 °F - 60.8 °F 61% 30.05 in 10.0 mi South 8.1 mph 17.3 mph N/A   Partly Cloudy
5:52 PM 75.9 °F - 62.1 °F 62% 30.03 in 10.0 mi SSE 9.2 mph 17.3 mph N/A   Partly Cloudy
6:03 PM 75.9 °F - 62.1 °F 62% 30.04 in 10.0 mi South 5.8 mph - N/A Thunderstorm Scattered Clouds
6:50 PM 75.2 °F - 64.4 °F 69% 30.03 in 10.0 mi Calm Calm - N/A   Clear
6:52 PM 75.9 °F - 64.9 °F 69% 30.01 in 10.0 mi Calm Calm - N/A   Clear
7:52 PM 75.0 °F - 64.0 °F 69% 30.02 in 10.0 mi Calm Calm - N/A   Clear
8:52 PM 73.0 °F - 61.0 °F 66% 30.02 in 10.0 mi Calm Calm - N/A   Mostly Cloudy
9:52 PM 73.0 °F - 63.0 °F 71% 30.03 in 10.0 mi Calm Calm - N/A   Clear
10:52 PM 73.0 °F - 64.0 °F 73% 30.03 in 10.0 mi Calm Calm - N/A   Partly Cloudy